Time,TemperatureF,DewpointF,PressureIn,WindDirection,WindDirectionDegrees,WindSpeedMPH,WindSpeedGustMPH,Humidity,HourlyPrecipIn,Conditions,Clouds,dailyrainin,SoftwareType,DateUTC
2013-01-17 00:01:00,62.0,60.6,29.92,NW,313,0.0,1.0,95,0.00,,---,0.00,VWS V14.00,2013-01-17 05:01:00,
2013-01-17 00:03:00,62.0,60.6,29.92,NW,313,0.0,1.0,95,0.00,,---,0.00,VWS V14.00,2013-01-17 05:03:00,
2013-01-17 00:08:00,62.0,60.6,29.93,NW,313,0.0,1.0,95,0.00,,---,0.00,VWS V14.00,2013-01-17 05:08:00,
2013-01-17 00:13:00,62.0,60.6,29.92,NW,313,1.0,1.0,95,0.00,,---,0.00,VWS V14.00,2013-01-17 05:13:00,
2013-01-17 00:18:00,61.9,60.5,29.92,NW,313,0.0,4.0,95,0.00,,---,0.00,VWS V14.00,2013-01-17 05:18:00,
2013-01-17 00:23:00,61.9,60.8,29.92,NW,313,0.0,4.0,96,0.01,,---,0.01,VWS V14.00,2013-01-17 05:23:00,
2013-01-17 00:28:00,61.9,60.8,29.92,WNW,288,1.0,4.0,96,0.02,,---,0.02,VWS V14.00,2013-01-17 05:28:00,
2013-01-17 00:33:00,61.9,60.8,29.92,WNW,290,0.0,4.0,96,0.03,,---,0.03,VWS V14.00,2013-01-17 05:33:00,
2013-01-17 00:38:00,61.9,60.8,29.93,WNW,290,0.0,4.0,96,0.05,,---,0.05,VWS V14.00,2013-01-17 05:38:00,
2013-01-17 00:43:00,61.8,60.7,29.94,NW,313,2.0,8.0,96,0.09,,---,0.09,VWS V14.00,2013-01-17 05:43:00,
2013-01-17 00:48:00,61.8,60.7,29.94,NW,313,0.0,8.0,96,0.14,,---,0.14,VWS V14.00,2013-01-17 05:48:00,
2013-01-17 00:53:00,61.8,60.7,29.93,NW,313,0.0,8.0,96,0.17,,---,0.17,VWS V14.00,2013-01-17 05:53:00,
2013-01-17 00:58:00,61.7,60.5,29.93,NW,313,0.0,0.0,96,0.17,,---,0.17,VWS V14.00,2013-01-17 05:58:00,
2013-01-17 01:03:00,61.8,60.7,29.92,NW,313,0.0,4.0,96,0.17,,---,0.17,VWS V14.00,2013-01-17 06:03:00,
2013-01-17 01:08:00,61.8,60.7,29.92,NW,313,0.0,4.0,96,0.17,,---,0.17,VWS V14.00,2013-01-17 06:08:00,
2013-01-17 01:13:00,61.8,60.7,29.92,NW,313,0.0,4.0,96,0.17,,---,0.17,VWS V14.00,2013-01-17 06:13:00,
2013-01-17 01:18:00,61.8,60.7,29.92,NW,313,0.0,4.0,96,0.17,,---,0.17,VWS V14.00,2013-01-17 06:18:00,
2013-01-17 01:23:00,61.8,60.7,29.92,NW,313,0.0,4.0,96,0.17,,---,0.17,VWS V14.00,2013-01-17 06:23:00,
2013-01-17 01:28:00,61.8,60.7,29.92,NW,313,0.0,0.0,96,0.15,,---,0.17,VWS V14.00,2013-01-17 06:28:00,
2013-01-17 01:33:00,61.9,60.8,29.92,NW,313,0.0,2.0,96,0.16,,---,0.18,VWS V14.00,2013-01-17 06:33:00,
2013-01-17 01:38:00,61.9,60.8,29.92,NW,313,0.0,2.0,96,0.16,,---,0.18,VWS V14.00,2013-01-17 06:38:00,
2013-01-17 01:43:00,62.0,60.8,29.92,NW,313,0.0,2.0,96,0.16,,---,0.18,VWS V14.00,2013-01-17 06:43:00,
2013-01-17 01:48:00,62.0,60.8,29.92,NW,313,0.0,2.0,96,0.16,,---,0.18,VWS V14.00,2013-01-17 06:48:00,
2013-01-17 01:53:00,62.0,60.8,29.92,NW,313,0.0,2.0,96,0.16,,---,0.18,VWS V14.00,2013-01-17 06:53:00,
2013-01-17 01:58:00,62.1,61.0,29.92,NW,313,0.0,0.0,96,0.01,,---,0.18,VWS V14.00,2013-01-17 06:58:00,
2013-01-17 02:03:00,62.1,61.0,29.92,NW,313,0.0,0.0,96,0.01,,---,0.18,VWS V14.00,2013-01-17 07:03:00,
2013-01-17 02:08:00,62.2,61.0,29.92,NW,313,0.0,1.0,96,0.01,,---,0.18,VWS V14.00,2013-01-17 07:08:00,
2013-01-17 02:13:00,62.3,61.2,29.92,NW,313,0.0,1.0,96,0.01,,---,0.18,VWS V14.00,2013-01-17 07:13:00,
2013-01-17 02:18:00,62.4,61.2,29.92,NW,313,0.0,2.0,96,0.01,,---,0.18,VWS V14.00,2013-01-17 07:18:00,
2013-01-17 02:23:00,62.5,61.3,29.92,NW,313,0.0,2.0,96,0.01,,---,0.18,VWS V14.00,2013-01-17 07:23:00,
2013-01-17 02:28:00,62.6,61.5,29.91,NW,313,0.0,0.0,96,0.01,,---,0.18,VWS V14.00,2013-01-17 07:28:00,
2013-01-17 02:33:00,62.6,61.5,29.91,NW,313,0.0,1.0,96,0.01,,---,0.18,VWS V14.00,2013-01-17 07:33:00,
2013-01-17 02:38:00,62.8,61.7,29.91,WNW,298,0.0,5.0,96,0.01,,---,0.18,VWS V14.00,2013-01-17 07:38:00,
2013-01-17 02:43:00,62.9,61.8,29.91,WNW,298,0.0,5.0,96,0.01,,---,0.18,VWS V14.00,2013-01-17 07:43:00,
2013-01-17 02:48:00,62.9,61.8,29.90,WNW,298,0.0,5.0,96,0.01,,---,0.18,VWS V14.00,2013-01-17 07:48:00,
2013-01-17 02:53:00,63.0,61.8,29.90,WNW,298,0.0,5.0,96,0.01,,---,0.18,VWS V14.00,2013-01-17 07:53:00,
2013-01-17 02:58:00,63.0,61.8,29.91,WNW,298,0.0,0.0,96,0.00,,---,0.18,VWS V14.00,2013-01-17 07:58:00,
2013-01-17 03:03:00,63.0,61.8,29.91,WNW,298,0.0,1.0,96,0.00,,---,0.18,VWS V14.00,2013-01-17 08:03:00,
2013-01-17 03:08:00,63.0,61.8,29.91,WNW,293,1.0,4.0,96,0.00,,---,0.18,VWS V14.00,2013-01-17 08:08:00,
2013-01-17 03:13:00,63.1,61.9,29.90,WNW,293,0.0,4.0,96,0.00,,---,0.18,VWS V14.00,2013-01-17 08:13:00,
2013-01-17 03:18:00,63.1,61.9,29.90,WNW,293,0.0,4.0,96,0.00,,---,0.18,VWS V14.00,2013-01-17 08:18:00,
2013-01-17 03:23:00,63.1,61.9,29.90,WNW,293,1.0,4.0,96,0.00,,---,0.18,VWS V14.00,2013-01-17 08:23:00,
2013-01-17 03:28:00,63.2,62.0,29.90,West,280,0.0,0.0,96,0.00,,---,0.18,VWS V14.00,2013-01-17 08:28:00,
2013-01-17 03:33:00,63.2,62.0,29.90,West,280,0.0,1.0,96,0.00,,---,0.18,VWS V14.00,2013-01-17 08:33:00,
2013-01-17 03:38:00,63.2,62.0,29.90,West,280,0.0,2.0,96,0.00,,---,0.18,VWS V14.00,2013-01-17 08:38:00,
2013-01-17 03:43:00,63.2,62.0,29.90,West,280,0.0,2.0,96,0.00,,---,0.18,VWS V14.00,2013-01-17 08:43:00,
2013-01-17 03:48:00,63.2,62.0,29.90,West,280,0.0,2.0,96,0.00,,---,0.18,VWS V14.00,2013-01-17 08:48:00,
2013-01-17 03:53:00,63.3,62.1,29.89,West,280,0.0,2.0,96,0.00,,---,0.18,VWS V14.00,2013-01-17 08:53:00,
2013-01-17 03:58:00,63.3,62.1,29.89,West,280,0.0,0.0,96,0.00,,---,0.18,VWS V14.00,2013-01-17 08:58:00,
2013-01-17 04:03:00,63.3,62.1,29.89,West,280,0.0,1.0,96,0.00,,---,0.18,VWS V14.00,2013-01-17 09:03:00,
2013-01-17 04:08:00,63.3,62.1,29.89,West,280,0.0,1.0,96,0.00,,---,0.18,VWS V14.00,2013-01-17 09:08:00,
2013-01-17 04:13:00,63.3,62.1,29.89,West,280,0.0,1.0,96,0.00,,---,0.18,VWS V14.00,2013-01-17 09:13:00,
2013-01-17 04:18:00,63.3,62.1,29.89,West,280,0.0,1.0,96,0.00,,---,0.18,VWS V14.00,2013-01-17 09:18:00,
2013-01-17 04:23:00,63.3,62.1,29.89,West,280,0.0,1.0,96,0.00,,---,0.18,VWS V14.00,2013-01-17 09:23:00,
2013-01-17 04:28:00,63.3,62.1,29.88,West,279,1.0,5.0,96,0.00,,---,0.18,VWS V14.00,2013-01-17 09:28:00,
2013-01-17 04:33:00,63.4,62.2,29.88,West,277,0.0,4.0,96,0.00,,---,0.18,VWS V14.00,2013-01-17 09:33:00,
2013-01-17 04:38:00,63.5,62.3,29.88,WSW,258,0.0,5.0,96,0.00,,---,0.18,VWS V14.00,2013-01-17 09:38:00,
2013-01-17 04:43:00,63.6,62.4,29.88,WSW,258,0.0,5.0,96,0.00,,---,0.18,VWS V14.00,2013-01-17 09:43:00,
2013-01-17 04:48:00,63.6,62.4,29.88,WSW,254,2.0,5.0,96,0.00,,---,0.18,VWS V14.00,2013-01-17 09:48:00,
2013-01-17 04:53:00,63.7,62.5,29.88,WSW,254,0.0,5.0,96,0.00,,---,0.18,VWS V14.00,2013-01-17 09:53:00,
2013-01-17 04:58:00,63.8,62.6,29.88,SW,224,0.0,1.0,96,0.00,,---,0.18,VWS V14.00,2013-01-17 09:58:00,
2013-01-17 05:03:00,63.8,62.6,29.88,SW,224,0.0,2.0,96,0.00,,---,0.18,VWS V14.00,2013-01-17 10:03:00,
2013-01-17 05:08:00,63.8,62.6,29.88,SW,223,1.0,4.0,96,0.00,,---,0.18,VWS V14.00,2013-01-17 10:08:00,
2013-01-17 05:13:00,63.8,62.6,29.88,SW,223,0.0,4.0,96,0.00,,---,0.18,VWS V14.00,2013-01-17 10:13:00,
2013-01-17 05:18:00,63.9,62.7,29.88,SW,223,0.0,4.0,96,0.00,,---,0.18,VWS V14.00,2013-01-17 10:18:00,
2013-01-17 05:23:00,63.9,62.7,29.88,SW,223,0.0,4.0,96,0.00,,---,0.18,VWS V14.00,2013-01-17 10:23:00,
2013-01-17 05:28:00,63.9,62.7,29.88,SW,223,0.0,0.0,96,0.00,,---,0.18,VWS V14.00,2013-01-17 10:28:00,
2013-01-17 05:33:00,63.9,62.7,29.88,SW,223,0.0,1.0,96,0.00,,---,0.18,VWS V14.00,2013-01-17 10:33:00,
2013-01-17 05:38:00,63.9,62.7,29.87,SW,223,0.0,1.0,96,0.00,,---,0.18,VWS V14.00,2013-01-17 10:38:00,
2013-01-17 05:43:00,63.9,62.7,29.87,SW,223,0.0,1.0,96,0.00,,---,0.18,VWS V14.00,2013-01-17 10:43:00,
2013-01-17 05:48:00,63.9,62.7,29.87,SW,223,0.0,1.0,96,0.00,,---,0.18,VWS V14.00,2013-01-17 10:48:00,
2013-01-17 05:53:00,63.9,62.7,29.87,SW,223,0.0,1.0,96,0.00,,---,0.18,VWS V14.00,2013-01-17 10:53:00,
2013-01-17 05:58:00,63.9,62.7,29.87,SW,223,0.0,0.0,96,0.00,,---,0.18,VWS V14.00,2013-01-17 10:58:00,
2013-01-17 06:03:00,63.9,62.7,29.87,SW,223,0.0,1.0,96,0.01,,---,0.19,VWS V14.00,2013-01-17 11:03:00,
2013-01-17 06:08:00,63.8,62.6,29.87,SW,223,0.0,0.0,96,0.01,,---,0.19,VWS V14.00,2013-01-17 11:08:00,
2013-01-17 06:13:00,63.8,62.6,29.87,SW,223,0.0,2.0,96,0.01,,---,0.19,VWS V14.00,2013-01-17 11:13:00,
2013-01-17 06:18:00,63.8,62.6,29.87,SW,223,0.0,3.0,96,0.01,,---,0.19,VWS V14.00,2013-01-17 11:18:00,
2013-01-17 06:23:00,63.8,62.6,29.87,SW,223,0.0,3.0,96,0.01,,---,0.19,VWS V14.00,2013-01-17 11:23:00,
2013-01-17 06:28:00,63.8,62.6,29.87,SW,223,0.0,0.0,96,0.01,,---,0.19,VWS V14.00,2013-01-17 11:28:00,
2013-01-17 06:33:00,63.8,62.6,29.87,SW,223,1.0,2.0,96,0.01,,---,0.19,VWS V14.00,2013-01-17 11:33:00,
2013-01-17 06:38:00,63.8,62.6,29.87,SW,223,1.0,2.0,96,0.01,,---,0.19,VWS V14.00,2013-01-17 11:38:00,
2013-01-17 06:43:00,63.8,62.6,29.88,SW,223,0.0,2.0,96,0.01,,---,0.19,VWS V14.00,2013-01-17 11:43:00,
2013-01-17 06:48:00,63.8,62.6,29.88,SW,223,2.0,3.0,96,0.02,,---,0.20,VWS V14.00,2013-01-17 11:48:00,
2013-01-17 06:53:00,63.8,62.6,29.88,SW,223,0.0,3.0,96,0.03,,---,0.21,VWS V14.00,2013-01-17 11:53:00,
2013-01-17 06:58:00,63.7,62.5,29.88,SW,223,3.0,3.0,96,0.03,,---,0.21,VWS V14.00,2013-01-17 11:58:00,
2013-01-17 07:03:00,63.7,62.5,29.88,SW,223,1.0,3.0,96,0.04,,---,0.22,VWS V14.00,2013-01-17 12:03:00,
2013-01-17 07:08:00,63.7,62.5,29.88,SW,221,3.0,5.0,96,0.06,,---,0.24,VWS V14.00,2013-01-17 12:08:00,
2013-01-17 07:13:00,63.6,62.4,29.87,SW,221,0.0,5.0,96,0.07,,---,0.25,VWS V14.00,2013-01-17 12:13:00,
2013-01-17 07:18:00,63.6,62.4,29.87,SW,221,0.0,5.0,96,0.08,,---,0.26,VWS V14.00,2013-01-17 12:18:00,
2013-01-17 07:23:00,63.6,62.4,29.87,SW,219,3.0,5.0,96,0.08,,---,0.26,VWS V14.00,2013-01-17 12:23:00,
2013-01-17 07:28:00,63.5,62.3,29.86,SW,219,2.0,5.0,96,0.08,,---,0.26,VWS V14.00,2013-01-17 12:28:00,
2013-01-17 07:33:00,63.5,62.3,29.86,SSE,161,1.0,7.0,96,0.08,,---,0.27,VWS V14.00,2013-01-17 12:33:00,
2013-01-17 07:38:00,63.4,62.2,29.86,SSE,162,2.0,7.0,96,0.08,,---,0.27,VWS V14.00,2013-01-17 12:38:00,
2013-01-17 07:43:00,63.4,62.2,29.85,South,170,1.0,7.0,96,0.08,,---,0.27,VWS V14.00,2013-01-17 12:43:00,
2013-01-17 07:48:00,63.4,62.2,29.85,SSW,199,0.0,7.0,96,0.08,,---,0.27,VWS V14.00,2013-01-17 12:48:00,
2013-01-17 07:53:00,63.4,62.2,29.86,SSW,195,3.0,7.0,96,0.08,,---,0.27,VWS V14.00,2013-01-17 12:53:00,
2013-01-17 07:58:00,63.4,62.2,29.86,SSW,205,2.0,7.0,96,0.08,,---,0.27,VWS V14.00,2013-01-17 12:58:00,
2013-01-17 08:03:00,63.4,62.2,29.85,SSW,196,0.0,5.0,96,0.06,,---,0.27,VWS V14.00,2013-01-17 13:03:00,
2013-01-17 08:08:00,63.4,62.2,29.85,SSW,192,2.0,5.0,96,0.06,,---,0.27,VWS V14.00,2013-01-17 13:08:00,
2013-01-17 08:13:00,63.4,62.2,29.85,SSW,192,2.0,5.0,96,0.06,,---,0.27,VWS V14.00,2013-01-17 13:13:00,
2013-01-17 08:18:00,63.4,62.2,29.86,SSW,192,2.0,5.0,96,0.06,,---,0.27,VWS V14.00,2013-01-17 13:18:00,
2013-01-17 08:23:00,63.4,62.2,29.86,SSE,165,1.0,7.0,96,0.06,,---,0.27,VWS V14.00,2013-01-17 13:23:00,
2013-01-17 08:28:00,63.4,62.2,29.86,South,177,0.0,7.0,96,0.06,,---,0.27,VWS V14.00,2013-01-17 13:28:00,
2013-01-17 08:33:00,63.3,62.1,29.86,South,178,0.0,6.0,96,0.01,,---,0.27,VWS V14.00,2013-01-17 13:33:00,
2013-01-17 08:38:00,63.3,62.1,29.85,SSW,213,1.0,8.0,96,0.01,,---,0.27,VWS V14.00,2013-01-17 13:38:00,
2013-01-17 08:43:00,63.4,62.2,29.85,South,180,0.0,9.0,96,0.01,,---,0.27,VWS V14.00,2013-01-17 13:43:00,
2013-01-17 08:48:00,63.4,62.2,29.86,SSW,201,0.0,9.0,96,0.01,,---,0.27,VWS V14.00,2013-01-17 13:48:00,
2013-01-17 08:53:00,63.4,62.2,29.86,SSW,211,1.0,9.0,96,0.01,,---,0.27,VWS V14.00,2013-01-17 13:53:00,
2013-01-17 08:58:00,63.5,62.3,29.86,South,188,4.0,9.0,96,0.01,,---,0.27,VWS V14.00,2013-01-17 13:58:00,
2013-01-17 09:03:00,63.5,62.3,29.85,South,177,2.0,5.0,96,0.00,,---,0.27,VWS V14.00,2013-01-17 14:03:00,
2013-01-17 09:08:00,63.5,62.3,29.85,South,169,2.0,6.0,96,0.00,,---,0.27,VWS V14.00,2013-01-17 14:08:00,
2013-01-17 09:13:00,63.6,62.4,29.85,SSW,204,0.0,6.0,96,0.00,,---,0.27,VWS V14.00,2013-01-17 14:13:00,
2013-01-17 09:18:00,63.6,62.4,29.84,SSW,200,1.0,6.0,96,0.00,,---,0.27,VWS V14.00,2013-01-17 14:18:00,
2013-01-17 09:23:00,63.7,62.5,29.84,SSW,203,2.0,6.0,96,0.00,,---,0.27,VWS V14.00,2013-01-17 14:23:00,
2013-01-17 09:28:00,63.8,62.6,29.84,SW,221,2.0,2.0,96,0.00,,---,0.27,VWS V14.00,2013-01-17 14:28:00,
2013-01-17 09:33:00,63.8,62.6,29.84,SSW,194,4.0,7.0,96,0.00,,---,0.27,VWS V14.00,2013-01-17 14:33:00,
2013-01-17 09:37:00,63.9,62.7,29.84,South,180,2.0,7.0,96,0.00,,---,0.27,VWS V14.00,2013-01-17 14:37:00,
2013-01-17 09:42:00,64.0,62.8,29.84,South,182,2.0,7.0,96,0.00,,---,0.27,VWS V14.00,2013-01-17 14:42:00,
2013-01-17 09:47:00,64.1,62.9,29.83,South,177,2.0,7.0,96,0.00,,---,0.27,VWS V14.00,2013-01-17 14:47:00,
2013-01-17 09:52:00,64.2,63.0,29.84,South,178,2.0,11.0,96,0.00,,---,0.27,VWS V14.00,2013-01-17 14:52:00,
2013-01-17 09:57:00,64.3,63.1,29.83,SE,137,6.0,11.0,96,0.00,,---,0.27,VWS V14.00,2013-01-17 14:57:00,
2013-01-17 10:02:00,64.4,63.2,29.83,SW,214,6.0,8.0,96,0.00,,---,0.27,VWS V14.00,2013-01-17 15:02:00,
2013-01-17 10:07:00,64.5,63.3,29.83,SSW,201,0.0,8.0,96,0.00,,---,0.27,VWS V14.00,2013-01-17 15:07:00,
2013-01-17 10:12:00,64.5,63.3,29.83,SSW,192,3.0,8.0,96,0.00,,---,0.27,VWS V14.00,2013-01-17 15:12:00,
2013-01-17 10:17:00,64.6,63.4,29.82,South,171,5.0,11.0,96,0.00,,---,0.27,VWS V14.00,2013-01-17 15:17:00,
2013-01-17 10:22:00,64.7,63.2,29.81,South,183,0.0,11.0,95,0.00,,---,0.27,VWS V14.00,2013-01-17 15:22:00,
2013-01-17 10:27:00,64.8,63.3,29.81,South,169,2.0,13.0,95,0.00,,---,0.27,VWS V14.00,2013-01-17 15:27:00,
2013-01-17 10:32:00,64.9,63.4,29.80,SSW,200,5.0,8.0,95,0.00,,---,0.27,VWS V14.00,2013-01-17 15:32:00,
2013-01-17 10:37:00,65.0,63.5,29.81,South,185,2.0,8.0,95,0.00,,---,0.27,VWS V14.00,2013-01-17 15:37:00,
2013-01-17 10:42:00,65.0,63.5,29.80,SSE,153,4.0,8.0,95,0.00,,---,0.27,VWS V14.00,2013-01-17 15:42:00,
2013-01-17 10:47:00,65.2,63.4,29.81,SSE,168,2.0,8.0,94,0.00,,---,0.27,VWS V14.00,2013-01-17 15:47:00,
2013-01-17 10:52:00,65.3,63.5,29.80,SW,215,6.0,8.0,94,0.00,,---,0.27,VWS V14.00,2013-01-17 15:52:00,
2013-01-17 10:57:00,65.6,63.8,29.79,SSW,192,1.0,8.0,94,0.00,,---,0.27,VWS V14.00,2013-01-17 15:57:00,
2013-01-17 11:02:00,65.8,64.0,29.79,SW,224,3.0,8.0,94,0.00,,---,0.27,VWS V14.00,2013-01-17 16:02:00,
2013-01-17 11:07:00,66.2,64.4,29.78,South,188,1.0,9.0,94,0.00,,---,0.27,VWS V14.00,2013-01-17 16:07:00,
2013-01-17 11:12:00,66.8,64.7,29.77,SSE,148,6.0,9.0,93,0.00,,---,0.27,VWS V14.00,2013-01-17 16:12:00,
2013-01-17 11:17:00,67.4,64.7,29.77,SSW,208,2.0,9.0,91,0.00,,---,0.27,VWS V14.00,2013-01-17 16:17:00,
2013-01-17 11:22:00,67.7,64.7,29.77,West,263,4.0,10.0,90,0.00,,---,0.27,VWS V14.00,2013-01-17 16:22:00,
2013-01-17 11:27:00,67.8,64.4,29.77,SW,223,4.0,10.0,89,0.00,,---,0.27,VWS V14.00,2013-01-17 16:27:00,
2013-01-17 11:32:00,67.8,64.1,29.77,SSW,205,2.0,9.0,88,0.00,,---,0.27,VWS V14.00,2013-01-17 16:32:00,
2013-01-17 11:37:00,67.8,64.1,29.76,SSW,213,0.0,9.0,88,0.00,,---,0.27,VWS V14.00,2013-01-17 16:37:00,
2013-01-17 11:42:00,67.7,64.0,29.76,SW,220,2.0,9.0,88,0.00,,---,0.27,VWS V14.00,2013-01-17 16:42:00,
2013-01-17 11:47:00,67.6,63.9,29.76,WSW,252,3.0,9.0,88,0.00,,---,0.27,VWS V14.00,2013-01-17 16:47:00,
2013-01-17 11:52:00,67.6,64.2,29.75,WSW,237,2.0,9.0,89,0.00,,---,0.27,VWS V14.00,2013-01-17 16:52:00,
2013-01-17 11:57:00,67.6,63.9,29.75,South,191,6.0,9.0,88,0.00,,---,0.27,VWS V14.00,2013-01-17 16:57:00,
2013-01-17 12:02:00,67.7,64.0,29.75,SW,227,2.0,7.0,88,0.00,,---,0.27,VWS V14.00,2013-01-17 17:02:00,
2013-01-17 12:07:00,67.7,64.0,29.74,SW,226,0.0,7.0,88,0.00,,---,0.27,VWS V14.00,2013-01-17 17:07:00,
2013-01-17 12:12:00,67.8,64.1,29.73,SW,219,3.0,7.0,88,0.00,,---,0.27,VWS V14.00,2013-01-17 17:12:00,
2013-01-17 12:17:00,67.8,63.8,29.73,SSW,201,3.0,10.0,87,0.00,,---,0.27,VWS V14.00,2013-01-17 17:17:00,
2013-01-17 12:22:00,67.9,63.9,29.73,SSW,198,0.0,10.0,87,0.00,,---,0.27,VWS V14.00,2013-01-17 17:22:00,
2013-01-17 12:27:00,67.8,63.8,29.73,SW,215,2.0,10.0,87,0.00,,---,0.27,VWS V14.00,2013-01-17 17:27:00,
2013-01-17 12:32:00,67.7,64.0,29.72,SW,215,3.0,8.0,88,0.00,,---,0.27,VWS V14.00,2013-01-17 17:32:00,
2013-01-17 12:37:00,67.5,63.8,29.72,WSW,241,2.0,8.0,88,0.00,,---,0.27,VWS V14.00,2013-01-17 17:37:00,
2013-01-17 12:42:00,67.1,63.1,29.73,SW,235,5.0,13.0,87,0.00,,---,0.27,VWS V14.00,2013-01-17 17:42:00,
2013-01-17 12:47:00,65.4,60.5,29.74,West,265,11.0,13.0,84,0.00,,---,0.27,VWS V14.00,2013-01-17 17:47:00,
2013-01-17 12:52:00,63.0,58.8,29.73,WSW,250,3.0,13.0,86,0.01,,---,0.28,VWS V14.00,2013-01-17 17:52:00,
2013-01-17 12:57:00,61.4,57.8,29.74,SW,233,2.0,17.0,88,0.02,,---,0.29,VWS V14.00,2013-01-17 17:57:00,
2013-01-17 13:02:00,60.5,57.6,29.74,WSW,239,7.0,8.0,90,0.03,,---,0.30,VWS V14.00,2013-01-17 18:02:00,
2013-01-17 13:07:00,59.5,56.3,29.75,WSW,252,8.0,14.0,89,0.03,,---,0.30,VWS V14.00,2013-01-17 18:07:00,
2013-01-17 13:12:00,58.7,55.8,29.74,WSW,253,3.0,14.0,90,0.03,,---,0.30,VWS V14.00,2013-01-17 18:12:00,
2013-01-17 13:17:00,58.1,55.2,29.73,SW,233,7.0,14.0,90,0.03,,---,0.30,VWS V14.00,2013-01-17 18:17:00,
2013-01-17 13:22:00,57.7,55.1,29.73,SW,232,5.0,14.0,91,0.04,,---,0.31,VWS V14.00,2013-01-17 18:22:00,
2013-01-17 13:27:00,57.4,55.1,29.73,WSW,246,4.0,14.0,92,0.04,,---,0.31,VWS V14.00,2013-01-17 18:27:00,
2013-01-17 13:32:00,57.2,54.9,29.74,West,261,5.0,10.0,92,0.04,,---,0.31,VWS V14.00,2013-01-17 18:32:00,
2013-01-17 13:37:00,56.9,54.6,29.74,SW,229,8.0,16.0,92,0.04,,---,0.31,VWS V14.00,2013-01-17 18:37:00,
2013-01-17 13:42:00,56.4,53.8,29.74,North,355,5.0,16.0,91,0.05,,---,0.32,VWS V14.00,2013-01-17 18:42:00,
2013-01-17 13:47:00,55.8,53.2,29.74,SW,229,7.0,17.0,91,0.05,,---,0.32,VWS V14.00,2013-01-17 18:47:00,
2013-01-17 13:52:00,55.0,52.1,29.75,SSW,193,5.0,17.0,90,0.05,,---,0.32,VWS V14.00,2013-01-17 18:52:00,
2013-01-17 13:57:00,54.6,52.0,29.75,WSW,242,6.0,17.0,91,0.05,,---,0.32,VWS V14.00,2013-01-17 18:57:00,
2013-01-17 14:02:00,54.2,51.6,29.75,NE,34,8.0,15.0,91,0.03,,---,0.32,VWS V14.00,2013-01-17 19:02:00,
2013-01-17 14:07:00,53.9,51.3,29.75,SW,234,2.0,15.0,91,0.03,,---,0.32,VWS V14.00,2013-01-17 19:07:00,
2013-01-17 14:12:00,53.7,51.4,29.75,WSW,242,6.0,15.0,92,0.03,,---,0.32,VWS V14.00,2013-01-17 19:12:00,
2013-01-17 14:17:00,53.5,51.2,29.75,WSW,250,6.0,15.0,92,0.05,,---,0.34,VWS V14.00,2013-01-17 19:17:00,
2013-01-17 14:22:00,53.2,51.2,29.76,WSW,246,6.0,15.0,93,0.07,,---,0.36,VWS V14.00,2013-01-17 19:22:00,
2013-01-17 14:27:00,52.8,50.5,29.77,West,261,4.0,18.0,92,0.07,,---,0.36,VWS V14.00,2013-01-17 19:27:00,
2013-01-17 14:32:00,52.2,49.7,29.77,SW,231,13.0,15.0,91,0.07,,---,0.38,VWS V14.00,2013-01-17 19:32:00,
2013-01-17 14:37:00,51.7,49.2,29.77,WSW,250,6.0,15.0,91,0.08,,---,0.39,VWS V14.00,2013-01-17 19:37:00,
2013-01-17 14:42:00,51.1,48.6,29.77,SW,234,2.0,15.0,91,0.09,,---,0.40,VWS V14.00,2013-01-17 19:42:00,
2013-01-17 14:47:00,50.5,47.7,29.77,SW,236,4.0,15.0,90,0.10,,---,0.41,VWS V14.00,2013-01-17 19:47:00,
2013-01-17 14:52:00,49.9,47.1,29.77,WSW,257,1.0,15.0,90,0.10,,---,0.41,VWS V14.00,2013-01-17 19:52:00,
2013-01-17 14:57:00,49.7,47.2,29.78,WSW,252,4.0,15.0,91,0.11,,---,0.42,VWS V14.00,2013-01-17 19:57:00,
2013-01-17 15:02:00,49.5,47.0,29.78,WSW,244,5.0,10.0,91,0.11,,---,0.43,VWS V14.00,2013-01-17 20:02:00,
2013-01-17 15:07:00,49.2,47.0,29.79,West,261,6.0,12.0,92,0.12,,---,0.44,VWS V14.00,2013-01-17 20:07:00,
2013-01-17 15:12:00,49.1,46.9,29.79,WSW,243,4.0,12.0,92,0.13,,---,0.45,VWS V14.00,2013-01-17 20:12:00,
2013-01-17 15:17:00,48.9,46.7,29.78,SW,230,5.0,12.0,92,0.14,,---,0.46,VWS V14.00,2013-01-17 20:17:00,
2013-01-17 15:22:00,48.6,46.1,29.78,SSW,212,4.0,12.0,91,0.14,,---,0.46,VWS V14.00,2013-01-17 20:22:00,
2013-01-17 15:27:00,48.4,45.9,29.79,WSW,242,6.0,12.0,91,0.14,,---,0.46,VWS V14.00,2013-01-17 20:27:00,
2013-01-17 15:32:00,48.7,46.5,29.78,WSW,243,6.0,8.0,92,0.09,,---,0.46,VWS V14.00,2013-01-17 20:32:00,
2013-01-17 15:37:00,48.9,46.4,29.79,West,264,4.0,8.0,91,0.09,,---,0.46,VWS V14.00,2013-01-17 20:37:00,
2013-01-17 15:42:00,48.9,45.8,29.79,WSW,241,4.0,14.0,89,0.09,,---,0.46,VWS V14.00,2013-01-17 20:42:00,
2013-01-17 15:47:00,48.7,45.3,29.79,SW,236,2.0,14.0,88,0.09,,---,0.46,VWS V14.00,2013-01-17 20:47:00,
2013-01-17 15:52:00,48.6,45.2,29.79,WSW,245,5.0,14.0,88,0.09,,---,0.46,VWS V14.00,2013-01-17 20:52:00,
2013-01-17 15:57:00,48.7,45.3,29.80,WSW,255,4.0,14.0,88,0.09,,---,0.46,VWS V14.00,2013-01-17 20:57:00,
2013-01-17 16:02:00,48.9,45.5,29.80,West,262,0.0,12.0,88,0.04,,---,0.46,VWS V14.00,2013-01-17 21:02:00,
2013-01-17 16:07:00,49.0,44.4,29.79,WSW,254,6.0,12.0,84,0.04,,---,0.46,VWS V14.00,2013-01-17 21:07:00,
2013-01-17 16:12:00,49.1,44.2,29.80,SW,233,6.0,14.0,83,0.04,,---,0.46,VWS V14.00,2013-01-17 21:12:00,
2013-01-17 16:17:00,49.0,43.4,29.81,WSW,252,8.0,14.0,81,0.04,,---,0.46,VWS V14.00,2013-01-17 21:17:00,
2013-01-17 16:22:00,48.9,42.7,29.81,WSW,240,4.0,21.0,79,0.04,,---,0.46,VWS V14.00,2013-01-17 21:22:00,
2013-01-17 16:27:00,48.6,42.4,29.81,WSW,237,4.0,21.0,79,0.04,,---,0.46,VWS V14.00,2013-01-17 21:27:00,
2013-01-17 16:32:00,48.3,41.8,29.81,West,275,5.0,17.0,78,0.00,,---,0.46,VWS V14.00,2013-01-17 21:32:00,
2013-01-17 16:37:00,48.1,41.6,29.82,NW,322,1.0,17.0,78,0.00,,---,0.46,VWS V14.00,2013-01-17 21:37:00,
2013-01-17 16:42:00,47.9,41.4,29.82,WSW,243,2.0,17.0,78,0.00,,---,0.46,VWS V14.00,2013-01-17 21:42:00,
2013-01-17 16:47:00,47.8,41.6,29.82,WSW,250,5.0,17.0,79,0.00,,---,0.46,VWS V14.00,2013-01-17 21:47:00,
2013-01-17 16:52:00,47.8,41.3,29.82,WSW,250,1.0,17.0,78,0.00,,---,0.46,VWS V14.00,2013-01-17 21:52:00,
2013-01-17 16:57:00,47.7,41.2,29.83,West,275,5.0,17.0,78,0.00,,---,0.46,VWS V14.00,2013-01-17 21:57:00,
2013-01-17 17:02:00,47.7,41.2,29.83,WSW,254,5.0,12.0,78,0.00,,---,0.46,VWS V14.00,2013-01-17 22:02:00,
2013-01-17 17:07:00,47.7,41.2,29.84,West,259,2.0,12.0,78,0.00,,---,0.46,VWS V14.00,2013-01-17 22:07:00,
2013-01-17 17:12:00,47.6,41.4,29.84,West,281,2.0,13.0,79,0.00,,---,0.46,VWS V14.00,2013-01-17 22:12:00,
2013-01-17 17:17:00,47.4,40.9,29.83,SW,226,3.0,13.0,78,0.00,,---,0.46,VWS V14.00,2013-01-17 22:17:00,
2013-01-17 17:22:00,47.2,40.4,29.84,NNE,17,6.0,15.0,77,0.00,,---,0.46,VWS V14.00,2013-01-17 22:22:00,
2013-01-17 17:27:00,47.0,40.2,29.85,SW,236,6.0,15.0,77,0.00,,---,0.46,VWS V14.00,2013-01-17 22:27:00,
2013-01-17 17:32:00,46.8,40.0,29.85,SW,236,12.0,12.0,77,0.00,,---,0.46,VWS V14.00,2013-01-17 22:32:00,
2013-01-17 17:37:00,46.5,39.7,29.85,WSW,240,3.0,12.0,77,0.00,,---,0.46,VWS V14.00,2013-01-17 22:37:00,
2013-01-17 17:42:00,46.2,39.7,29.86,WSW,246,3.0,12.0,78,0.00,,---,0.46,VWS V14.00,2013-01-17 22:42:00,
2013-01-17 17:47:00,46.0,39.9,29.85,West,259,3.0,12.0,79,0.00,,---,0.46,VWS V14.00,2013-01-17 22:47:00,
2013-01-17 17:52:00,45.9,39.8,29.87,West,270,1.0,12.0,79,0.00,,---,0.46,VWS V14.00,2013-01-17 22:52:00,
2013-01-17 17:57:00,45.7,39.6,29.86,West,271,2.0,12.0,79,0.00,,---,0.46,VWS V14.00,2013-01-17 22:57:00,
2013-01-17 18:02:00,45.6,39.8,29.87,West,263,2.0,8.0,80,0.00,,---,0.46,VWS V14.00,2013-01-17 23:02:00,
2013-01-17 18:07:00,45.6,39.5,29.88,West,262,1.0,9.0,79,0.00,,---,0.46,VWS V14.00,2013-01-17 23:07:00,
2013-01-17 18:12:00,45.5,38.7,29.88,WSW,240,3.0,14.0,77,0.00,,---,0.46,VWS V14.00,2013-01-17 23:12:00,
2013-01-17 18:17:00,45.3,38.9,29.89,West,265,3.0,16.0,78,0.00,,---,0.46,VWS V14.00,2013-01-17 23:17:00,
2013-01-17 18:22:00,45.1,38.7,29.89,West,264,5.0,16.0,78,0.00,,---,0.46,VWS V14.00,2013-01-17 23:22:00,
2013-01-17 18:27:00,45.0,38.9,29.90,West,262,0.0,16.0,79,0.00,,---,0.46,VWS V14.00,2013-01-17 23:27:00,
2013-01-17 18:32:00,44.8,38.7,29.90,West,265,3.0,9.0,79,0.00,,---,0.46,VWS V14.00,2013-01-17 23:32:00,
2013-01-17 18:37:00,44.7,38.9,29.90,West,260,6.0,11.0,80,0.00,,---,0.46,VWS V14.00,2013-01-17 23:37:00,
2013-01-17 18:42:00,44.6,39.1,29.91,West,263,1.0,11.0,81,0.00,,---,0.46,VWS V14.00,2013-01-17 23:42:00,
2013-01-17 18:47:00,44.5,39.0,29.91,WSW,250,3.0,11.0,81,0.00,,---,0.46,VWS V14.00,2013-01-17 23:47:00,
2013-01-17 18:52:00,44.5,39.0,29.92,NW,317,0.0,11.0,81,0.00,,---,0.46,VWS V14.00,2013-01-17 23:52:00,
2013-01-17 18:57:00,44.5,39.0,29.93,West,261,1.0,11.0,81,0.00,,---,0.46,VWS V14.00,2013-01-17 23:57:00,
2013-01-17 19:02:00,44.5,39.0,29.93,West,263,3.0,13.0,81,0.00,,---,0.46,VWS V14.00,2013-01-18 00:02:00,
2013-01-17 19:07:00,44.5,38.7,29.93,NNW,331,5.0,13.0,80,0.00,,---,0.46,VWS V14.00,2013-01-18 00:07:00,
2013-01-17 19:12:00,44.4,38.3,29.95,NNW,327,8.0,13.0,79,0.00,,---,0.46,VWS V14.00,2013-01-18 00:12:00,
2013-01-17 19:17:00,44.3,37.9,29.95,WNW,296,2.0,15.0,78,0.00,,---,0.46,VWS V14.00,2013-01-18 00:17:00,
2013-01-17 19:22:00,44.3,37.9,29.96,NW,322,5.0,15.0,78,0.00,,---,0.46,VWS V14.00,2013-01-18 00:22:00,
2013-01-17 19:27:00,44.2,37.8,29.96,WNW,284,0.0,15.0,78,0.00,,---,0.46,VWS V14.00,2013-01-18 00:27:00,
2013-01-17 19:32:00,44.1,37.7,29.98,WNW,302,4.0,12.0,78,0.00,,---,0.46,VWS V14.00,2013-01-18 00:32:00,
2013-01-17 19:37:00,44.0,37.6,29.97,SW,233,2.0,12.0,78,0.00,,---,0.46,VWS V14.00,2013-01-18 00:37:00,
2013-01-17 19:42:00,43.8,37.4,29.98,NW,321,8.0,12.0,78,0.00,,---,0.46,VWS V14.00,2013-01-18 00:42:00,
2013-01-17 19:47:00,43.7,37.3,29.99,NW,325,1.0,12.0,78,0.00,,---,0.46,VWS V14.00,2013-01-18 00:47:00,
2013-01-17 19:52:00,43.6,37.5,29.99,WSW,242,5.0,12.0,79,0.00,,---,0.46,VWS V14.00,2013-01-18 00:52:00,
2013-01-17 19:57:00,43.5,37.4,29.99,WNW,284,4.0,13.0,79,0.00,,---,0.46,VWS V14.00,2013-01-18 00:57:00,
2013-01-17 20:02:00,43.5,37.8,30.00,WNW,296,0.0,7.0,80,0.00,,---,0.46,VWS V14.00,2013-01-18 01:02:00,
2013-01-17 20:07:00,43.4,37.3,30.01,NW,304,11.0,17.0,79,0.00,,---,0.46,VWS V14.00,2013-01-18 01:07:00,
2013-01-17 20:12:00,43.3,37.2,30.01,NNW,348,5.0,18.0,79,0.00,,---,0.46,VWS V14.00,2013-01-18 01:12:00,
2013-01-17 20:17:00,43.3,37.6,30.01,NNW,328,6.0,18.0,80,0.00,,---,0.46,VWS V14.00,2013-01-18 01:17:00,
2013-01-17 20:22:00,43.2,37.1,30.02,North,355,4.0,18.0,79,0.00,,---,0.46,VWS V14.00,2013-01-18 01:22:00,
2013-01-17 20:27:00,43.1,37.4,30.03,NW,316,0.0,18.0,80,0.00,,---,0.46,VWS V14.00,2013-01-18 01:27:00,
2013-01-17 20:32:00,43.0,37.3,30.03,North,355,9.0,14.0,80,0.00,,---,0.46,VWS V14.00,2013-01-18 01:32:00,
2013-01-17 20:37:00,42.9,37.2,30.04,WSW,242,4.0,14.0,80,0.00,,---,0.46,VWS V14.00,2013-01-18 01:37:00,
2013-01-17 20:42:00,42.9,37.2,30.05,WNW,290,1.0,14.0,80,0.00,,---,0.46,VWS V14.00,2013-01-18 01:42:00,
2013-01-17 20:47:00,42.8,37.1,30.05,WSW,245,8.0,14.0,80,0.00,,---,0.46,VWS V14.00,2013-01-18 01:47:00,
2013-01-17 20:52:00,42.8,37.4,30.05,West,277,1.0,14.0,81,0.00,,---,0.46,VWS V14.00,2013-01-18 01:52:00,
2013-01-17 20:57:00,42.8,37.7,30.05,North,355,0.0,14.0,82,0.00,,---,0.46,VWS V14.00,2013-01-18 01:57:00,
2013-01-17 21:02:00,42.8,37.4,30.05,NW,311,1.0,11.0,81,0.00,,---,0.46,VWS V14.00,2013-01-18 02:02:00,
2013-01-17 21:07:00,42.8,37.7,30.05,NNW,336,5.0,11.0,82,0.00,,---,0.46,VWS V14.00,2013-01-18 02:07:00,
2013-01-17 21:12:00,42.7,37.6,30.06,North,360,2.0,2.0,82,0.00,,---,0.46,VWS V14.00,2013-01-18 02:12:00,
2013-01-17 21:17:00,42.7,37.6,30.06,WNW,292,4.0,11.0,82,0.00,,---,0.46,VWS V14.00,2013-01-18 02:17:00,
2013-01-17 21:22:00,42.7,37.9,30.06,North,360,0.0,14.0,83,0.00,,---,0.46,VWS V14.00,2013-01-18 02:22:00,
2013-01-17 21:27:00,42.7,37.9,30.06,NNW,340,4.0,14.0,83,0.00,,---,0.46,VWS V14.00,2013-01-18 02:27:00,
2013-01-17 21:32:00,42.7,37.9,30.06,NNW,329,4.0,6.0,83,0.00,,---,0.46,VWS V14.00,2013-01-18 02:32:00,
2013-01-17 21:37:00,42.7,38.2,30.05,NNE,16,6.0,8.0,84,0.00,,---,0.46,VWS V14.00,2013-01-18 02:37:00,
2013-01-17 21:42:00,42.7,38.2,30.06,North,5,3.0,11.0,84,0.00,,---,0.46,VWS V14.00,2013-01-18 02:42:00,
2013-01-17 21:47:00,42.8,38.6,30.06,NNW,344,5.0,12.0,85,0.00,,---,0.46,VWS V14.00,2013-01-18 02:47:00,
2013-01-17 21:52:00,42.8,38.6,30.06,North,11,2.0,12.0,85,0.00,,---,0.46,VWS V14.00,2013-01-18 02:52:00,
2013-01-17 21:57:00,42.8,38.6,30.06,NNE,28,3.0,12.0,85,0.00,,---,0.46,VWS V14.00,2013-01-18 02:57:00,
2013-01-17 22:02:00,42.8,38.6,30.07,NNW,328,5.0,11.0,85,0.00,,---,0.46,VWS V14.00,2013-01-18 03:02:00,
2013-01-17 22:07:00,42.9,39.0,30.07,NE,34,2.0,12.0,86,0.00,,---,0.46,VWS V14.00,2013-01-18 03:07:00,
2013-01-17 22:12:00,43.0,38.8,30.06,NNE,24,4.0,18.0,85,0.00,,---,0.46,VWS V14.00,2013-01-18 03:12:00,
2013-01-17 22:17:00,43.0,38.8,30.07,ENE,65,10.0,18.0,85,0.00,,---,0.46,VWS V14.00,2013-01-18 03:17:00,
2013-01-17 22:22:00,42.9,38.7,30.08,NE,34,6.0,18.0,85,0.00,,---,0.46,VWS V14.00,2013-01-18 03:22:00,
2013-01-17 22:27:00,42.7,38.5,30.08,North,355,0.0,18.0,85,0.00,,---,0.46,VWS V14.00,2013-01-18 03:27:00,
2013-01-17 22:32:00,42.6,38.4,30.08,NE,46,4.0,8.0,85,0.00,,---,0.46,VWS V14.00,2013-01-18 03:32:00,
2013-01-17 22:37:00,42.5,38.3,30.09,North,360,2.0,12.0,85,0.00,,---,0.46,VWS V14.00,2013-01-18 03:37:00,
2013-01-17 22:42:00,42.3,38.1,30.09,ENE,59,4.0,12.0,85,0.00,,---,0.46,VWS V14.00,2013-01-18 03:42:00,
2013-01-17 22:47:00,42.3,38.4,30.09,NE,38,11.0,13.0,86,0.00,,---,0.46,VWS V14.00,2013-01-18 03:47:00,
2013-01-17 22:52:00,42.3,38.4,30.10,NE,48,2.0,14.0,86,0.00,,---,0.46,VWS V14.00,2013-01-18 03:52:00,
2013-01-17 22:57:00,42.3,38.4,30.11,NNE,26,2.0,14.0,86,0.00,,---,0.46,VWS V14.00,2013-01-18 03:57:00,
2013-01-17 23:02:00,42.3,38.4,30.12,NE,51,4.0,12.0,86,0.00,,---,0.46,VWS V14.00,2013-01-18 04:02:00,
2013-01-17 23:07:00,42.2,38.3,30.12,NNE,30,5.0,16.0,86,0.00,,---,0.46,VWS V14.00,2013-01-18 04:07:00,
2013-01-17 23:12:00,42.3,38.4,30.14,North,360,2.0,16.0,86,0.00,,---,0.46,VWS V14.00,2013-01-18 04:12:00,
2013-01-17 23:17:00,42.3,38.4,30.14,North,11,3.0,16.0,86,0.00,,---,0.46,VWS V14.00,2013-01-18 04:17:00,
2013-01-17 23:22:00,42.3,38.4,30.15,North,11,4.0,16.0,86,0.00,,---,0.46,VWS V14.00,2013-01-18 04:22:00,
2013-01-17 23:28:00,42.3,38.4,30.15,NNE,24,4.0,16.0,86,0.00,,---,0.46,VWS V14.00,2013-01-18 04:28:00,
2013-01-17 23:33:00,42.3,38.4,30.16,NE,34,4.0,12.0,86,0.00,,---,0.46,VWS V14.00,2013-01-18 04:33:00,
2013-01-17 23:38:00,42.3,38.4,30.16,NNE,19,4.0,12.0,86,0.00,,---,0.46,VWS V14.00,2013-01-18 04:38:00,
2013-01-17 23:43:00,42.3,38.4,30.17,NE,35,5.0,12.0,86,0.00,,---,0.46,VWS V14.00,2013-01-18 04:43:00,
2013-01-17 23:48:00,42.3,38.4,30.17,NNE,15,2.0,14.0,86,0.00,,---,0.46,VWS V14.00,2013-01-18 04:48:00,
2013-01-17 23:53:00,42.2,38.6,30.17,NE,40,2.0,15.0,87,0.00,,---,0.46,VWS V14.00,2013-01-18 04:53:00,
2013-01-17 23:58:00,42.1,38.2,30.17,NE,41,6.0,6.0,86,0.00,,---,0.00,VWS V14.00,2013-01-18 04:58:00,